GW2076 Weather Reports


time (UTC)temp
C
wind
direction
speed
KPH
gust
KPH
rain 1hr
cm
rain 24hr
cm
rain mn
cm
humidity
%
barometer
mb
20260507165846 15 338 3.2 9.7 0.00 0.00 1.45 93 998.6
20260507165336 15 315 0.0 12.9 0.00 0.00 1.45 93 998.7
20260507164826 15 338 3.2 12.9 0.00 0.00 1.45 93 999.1
20260507164316 15 0 6.4 11.3 0.00 0.00 1.45 96 998.8
20260507163805 15 338 6.4 6.4 0.00 0.00 1.45 97 998.8
20260507145027 13 23 3.2 11.3 0.00 0.33 1.45 99 998.5
20260507144517 13 338 1.6 20.9 0.00 0.33 1.45 99 998.6
20260507144003 13 293 11.3 20.9 0.00 0.33 1.45 99 998.6
20260507143459 13 338 6.4 17.7 0.00 0.33 1.45 99 998.4
20260507142941 14 315 8.0 17.7 0.00 0.33 1.45 99 998.1
20260507142431 14 23 3.2 12.9 0.00 0.33 1.45 99 998.6
20260507141407 13 338 4.8 17.7 0.00 0.33 1.45 99 999.1
20260507140858 13 0 6.4 17.7 0.00 0.33 1.45 99 999.0
20260507140358 13 315 4.8 11.3 0.00 0.33 1.45 99 999.5
20260507135327 13 90 0.0 11.3 0.00 0.33 1.45 99 1000.5
20260507134817 13 315 0.0 11.3 0.00 0.33 1.45 99 999.6
20260507134308 13 23 3.2 11.3 0.00 0.33 1.45 99 999.6
20260507133757 13 338 3.2 11.3 0.00 0.33 1.45 99 999.2
20260507133301 13 0 6.4 9.7 0.00 0.33 1.45 99 999.0
20260507132238 13 315 0.0 17.7 0.00 0.33 1.45 99 999.7
20260507131725 13 338 4.8 17.7 0.00 0.33 1.45 99 999.6
20260507131215 13 0 4.8 14.5 0.00 0.33 1.45 99 998.8
20260507130702 14 0 3.2 14.5 0.00 0.33 1.45 99 999.1
20260507130152 14 338 4.8 14.5 0.03 0.33 1.45 99 999.4
20260507125638 13 45 3.2 12.9 0.03 0.33 1.45 99 999.4
20260507125126 13 338 4.8 11.3 0.03 0.33 1.45 99 999.5
20260507124615 13 0 1.6 12.9 0.03 0.33 1.45 99 999.0
20260507123045 13 23 6.4 12.9 0.03 0.33 1.45 99 998.6
20260507122027 13 0 6.4 17.7 0.03 0.33 1.45 99 999.2
20260507121522 13 23 6.4 17.7 0.03 0.33 1.45 99 999.3
20260507121009 13 338 3.2 14.5 0.05 0.33 1.45 99 999.5
20260507120000 14 0 1.6 12.9 0.03 0.30 1.42 99 999.6
20260507115447 14 23 3.2 12.9 0.03 0.30 1.42 99 999.6
20260507114937 13 23 4.8 14.5 0.03 0.30 1.42 99 999.2
20260507113909 13 0 6.4 20.9 0.03 0.30 1.42 99 998.5
20260507113400 13 23 6.4 17.7 0.03 0.30 1.42 99 998.7
20260507112846 13 315 6.4 17.7 0.03 0.30 1.42 99 998.6
20260507112336 14 23 9.7 24.1 0.03 0.30 1.42 99 998.5
20260507111825 14 23 12.9 24.1 0.05 0.30 1.42 99 998.6
20260507111314 14 338 6.4 17.7 0.03 0.28 1.37 99 998.5
20260507110803 14 23 8.0 17.7 0.03 0.28 1.37 99 998.6
20260507110253 14 0 6.4 17.7 0.03 0.28 1.37 99 998.7
20260507105743 14 0 6.4 14.5 0.05 0.28 1.37 99 998.2
20260507105233 13 338 3.2 12.9 0.05 0.28 1.37 99 998.1
20260507104724 13 0 6.4 14.5 0.05 0.28 1.37 99 998.1
20260507104213 13 0 9.7 17.7 0.05 0.28 1.37 99 998.6
20260507103703 13 45 6.4 17.7 0.10 0.28 1.37 99 998.4
20260507103153 13 338 6.4 17.7 0.10 0.28 1.37 99 997.9
20260507102657 13 338 6.4 17.7 0.13 0.28 1.37 99 997.9
20260507102143 13 0 4.8 14.5 0.13 0.28 1.37 99 998.2
20260507101121 13 23 4.8 20.9 0.13 0.23 1.35 99 998.9
20260507100608 13 0 6.4 20.9 0.15 0.23 1.35 99 998.9
20260507100059 13 0 9.7 17.7 0.15 0.23 1.35 99 998.9
20260507095544 13 23 3.2 17.7 0.15 0.20 1.32 99 999.3
20260507095034 13 68 4.8 17.7 0.18 0.20 1.32 99 999.4
20260507094518 13 45 3.2 17.7 0.20 0.20 1.32 99 999.4
20260507093501 13 293 9.7 22.5 0.18 0.18 1.30 99 998.9
20260507092951 13 45 6.4 22.5 0.18 0.18 1.30 99 999.3
20260507092442 13 23 9.7 22.5 0.15 0.15 1.27 99 999.3
20260507091931 13 23 8.0 22.5 0.15 0.15 1.27 99 999.7
20260507090400 13 315 3.2 14.5 0.10 0.10 1.19 99 1000.0
20260507084842 13 0 4.8 9.7 0.03 0.03 1.14 99 1000.2
20260507084328 13 0 1.6 11.3 0.00 0.00 1.12 99 1000.3
20260507083819 13 23 0.0 11.3 0.00 0.00 1.12 99 1000.2
20260507083306 13 45 0.0 9.7 0.00 0.00 1.12 99 1000.1
20260507082756 13 23 3.2 17.7 0.00 0.00 1.12 99 1000.0
20260507082242 13 45 3.2 17.7 0.00 0.00 1.12 99 999.8
20260507081733 13 338 4.8 12.9 0.00 0.00 1.12 99 999.9
20260507081219 13 0 4.8 11.3 0.00 0.00 1.12 99 999.8
20260507080159 13 23 1.6 9.7 0.00 0.00 1.12 99 999.4
20260507075649 13 0 3.2 9.7 0.00 0.00 1.12 99 999.1
20260507075139 13 315 0.0 6.4 0.00 0.00 1.12 99 998.7
20260507074119 13 68 0.0 0.0 0.00 0.00 1.12 99 998.6
20260507072549 13 315 0.0 0.0 0.43 1.68 1.04 99 998.2
20260507072036 13 338 0.0 0.0 0.43 1.65 1.02 99 998.6
20260507071524 13 0 0.0 3.2 0.38 1.60 0.99 99 998.2
20260507065951 13 338 3.2 6.4 0.36 1.50 0.86 99 999.0
20260507065441 13 0 0.0 0.0 0.33 1.45 0.81 99 998.8
20260507064931 13 45 0.0 0.0 0.33 1.42 0.79 99 999.0
20260507064421 13 0 0.0 0.0 0.33 1.37 0.76 99 999.1
20260507063911 13 338 0.0 0.0 0.33 1.35 0.71 99 999.4
20260507063401 14 315 0.0 0.0 0.30 1.32 0.69 99 999.4
20260507062850 14 23 0.0 0.0 0.28 1.30 0.66 99 999.5
20260507061831 14 338 0.0 0.0 0.28 1.22 0.61 99 999.2
20260507061333 14 315 0.0 0.0 0.28 1.19 0.56 99 999.2
20260507060820 14 338 0.0 0.0 0.28 1.17 0.53 99 999.1
20260507060310 14 338 0.0 0.0 0.28 1.17 0.53 99 999.0
20260507055245 14 315 0.0 0.0 0.28 1.12 0.48 99 998.5
20260507054735 14 315 0.0 0.0 0.20 1.04 0.46 99 998.7
20260507054222 14 338 0.0 0.0 0.20 1.04 0.43 99 998.6
20260507053712 14 315 0.0 0.0 0.18 1.02 0.38 99 998.4
20260507053159 14 338 0.0 6.4 0.20 1.02 0.38 99 998.4
20260507052649 14 0 0.0 6.4 0.20 0.99 0.36 99 998.7
20260507052138 14 68 1.6 12.9 0.18 0.97 0.33 99 998.6
20260507051118 14 338 3.2 6.4 0.18 0.94 0.30 99 998.9
20260507050608 14 23 0.0 0.0 0.18 0.89 0.28 99 999.0
20260507045547 14 0 0.0 9.7 0.18 0.86 0.23 99 999.2
20260507045037 14 45 0.0 9.7 0.15 0.84 0.20 99 999.4
20260507044032 14 45 1.6 11.3 0.15 0.84 0.20 99 998.2
20260507043519 14 315 0.0 11.3 0.13 0.81 0.18 99 998.2
20260507043006 14 45 3.2 6.4 0.15 0.81 0.18 99 998.4
20260507042458 15 45 0.0 3.2 0.13 0.79 0.15 99 998.8
20260507041942 15 23 0.0 3.2 0.13 0.79 0.15 99 998.4
20260507041433 15 23 0.0 0.0 0.13 0.76 0.13 99 998.4
20260507040920 15 338 0.0 0.0 0.13 0.76 0.13 99 998.2
20260507040406 15 23 0.0 6.4 0.10 0.71 0.10 99 998.8
20260507035347 15 23 0.0 6.4 0.10 0.69 0.05 99 998.9
20260507034837 15 23 0.0 6.4 0.10 0.69 0.05 99 998.5
20260507034327 15 338 0.0 6.4 0.10 0.69 0.05 99 998.0
20260507033816 15 315 0.0 6.4 0.13 0.69 0.05 99 997.9
20260507033306 15 315 0.0 6.4 0.13 0.69 0.05 99 998.0
20260507032757 15 23 0.0 3.2 0.10 0.66 0.03 99 998.1
20260507032246 15 23 0.0 6.4 0.10 0.66 0.03 99 998.0
20260507031735 15 338 0.0 6.4 0.13 0.66 0.03 99 997.6
20260507030727 15 0 0.0 0.0 0.10 0.64 0.00 99 997.9
20260507030216 15 90 0.0 0.0 0.10 0.64 0.00 99 998.2
20260507025703 15 68 0.0 0.0 0.05 0.61 0.61 99 998.1
20260507025154 15 113 0.0 0.0 0.05 0.61 0.61 99 998.5
20260507024640 15 270 0.0 0.0 0.10 0.61 0.61 99 999.2
20260507024129 15 338 0.0 0.0 0.05 0.56 0.61 99 999.7
20260507023617 15 68 0.0 0.0 0.05 0.56 0.56 99 1000.0
20260507023105 15 315 0.0 0.0 0.05 0.56 0.56 99 999.7
20260507022555 15 68 0.0 6.4 0.05 0.56 0.56 99 1000.6
20260507022045 15 248 0.0 6.4 0.03 0.53 0.56 99 1000.6
20260507021542 15 23 1.6 6.4 0.03 0.53 0.53 99 1001.0
20260507021024 15 338 0.0 0.0 0.03 0.53 0.53 99 1001.5
20260507020515 15 338 0.0 9.7 0.03 0.53 0.53 99 1002.0
20260507015454 15 248 0.0 6.4 0.03 0.53 0.53 99 1002.7
20260507014944 15 90 0.0 9.7 0.00 0.51 0.51 99 1003.1
20260507014434 15 293 0.0 9.7 0.00 0.51 0.51 99 1002.5
20260507013937 15 0 4.8 9.7 0.00 0.51 0.51 99 1002.6
20260507012914 15 90 4.8 20.9 0.00 0.51 0.51 99 1000.4
20260507012401 15 293 3.2 24.1 0.00 0.51 0.51 99 999.4
20260507011849 15 203 8.0 24.1 0.00 0.51 0.51 99 999.2
20260507011339 15 180 6.4 20.9 0.00 0.51 0.51 99 999.3
20260507010316 15 270 6.4 20.9 0.03 0.51 0.51 99 999.7
20260507005804 15 338 3.2 17.7 0.03 0.51 0.51 99 999.5
20260507005253 15 225 4.8 20.9 0.03 0.51 0.51 99 999.5
20260507004233 15 248 8.0 25.7 0.03 0.51 0.51 99 999.0
20260507003723 15 315 12.9 25.7 0.03 0.51 0.51 99 998.2
20260507003212 15 315 8.0 27.4 0.03 0.51 0.51 99 999.4
20260507002703 15 293 8.0 27.4 0.05 0.51 0.51 99 1000.2
20260507002152 14 135 11.3 24.1 0.05 0.51 0.51 99 1000.8
20260507001641 14 270 9.7 22.5 0.05 0.51 0.51 99 1001.1
20260507001147 14 248 6.4 17.7 0.05 0.51 0.51 99 1001.6
20260507000634 14 135 3.2 20.9 0.03 0.48 0.48 99 1002.7
20260507000123 14 338 6.4 20.9 0.03 0.48 0.48 99 1001.8
20260506235610 14 293 6.4 17.7 0.03 0.48 0.48 99 1002.9
20260506235100 14 338 4.8 25.7 0.05 0.48 0.48 99 1002.8
20260506234546 14 315 3.2 25.7 0.05 0.48 0.48 99 1003.9
20260506233524 14 315 6.4 17.7 0.05 0.48 0.48 99 1004.6
20260506233014 14 338 6.4 17.7 0.05 0.48 0.48 99 1004.3
20260506232501 14 225 3.2 22.5 0.03 0.46 0.46 99 1003.3
20260506231950 14 248 6.4 22.5 0.05 0.46 0.46 99 1003.4
20260506230930 14 338 11.3 24.1 0.05 0.46 0.46 99 1002.6
20260506230420 13 225 8.0 17.7 0.05 0.46 0.46 99 1003.0
20260506225400 13 293 3.2 20.9 0.05 0.43 0.43 99 1003.0
20260506224849 13 45 9.7 20.9 0.05 0.43 0.43 99 1003.6
20260506223844 13 23 6.4 27.4 0.05 0.43 0.43 99 1004.2
20260506223332 13 0 6.4 27.4 0.05 0.43 0.43 99 1004.3
20260506222820 13 338 4.8 17.7 0.05 0.43 0.43 99 1003.6
20260506221756 13 0 6.4 22.5 0.03 0.38 0.38 99 1004.4
20260506221245 13 293 11.3 17.7 0.03 0.38 0.38 99 1003.8
20260506220732 14 338 8.0 17.7 0.03 0.38 0.38 99 1004.7
20260506220224 14 338 3.2 17.7 0.03 0.38 0.38 99 1005.2
20260506215709 14 0 8.0 17.7 0.03 0.38 0.38 99 1004.2
20260506215158 14 293 6.4 17.7 0.00 0.36 0.36 99 1004.0
20260506214649 15 23 1.6 12.9 0.00 0.36 0.36 99 1004.2
20260506213628 15 270 4.8 20.9 0.03 0.36 0.36 99 1004.1
20260506213118 14 180 6.4 27.4 0.03 0.36 0.36 99 1004.3
20260506212609 14 225 11.3 27.4 0.03 0.36 0.36 99 1004.3
20260506212058 15 270 4.8 22.5 0.03 0.36 0.36 99 1003.9
20260506211548 15 225 6.4 24.1 0.03 0.36 0.36 99 1004.1
20260506211037 15 203 8.0 27.4 0.03 0.36 0.36 99 1003.9
20260506210542 15 248 14.5 27.4 0.03 0.36 0.36 99 1004.6
20260506205515 16 225 9.7 27.4 0.03 0.36 0.36 98 1005.1
20260506205006 16 158 4.8 33.8 0.03 0.36 0.36 99 1004.9
20260506204453 16 203 11.3 33.8 0.03 0.36 0.36 99 1005.1
20260506203943 16 0 14.5 33.8 0.03 0.33 0.36 99 1005.0
20260506203430 15 270 9.7 33.8 0.03 0.33 0.33 98 1004.9
20260506202920 15 248 6.4 33.8 0.03 0.33 0.33 98 1005.5
20260506202408 15 270 9.7 24.1 0.03 0.33 0.33 98 1006.0
20260506201857 15 270 6.4 27.4 0.03 0.33 0.33 98 1005.9
20260506201347 15 270 16.1 27.4 0.03 0.33 0.33 98 1005.6
20260506200837 15 203 14.5 25.7 0.03 0.33 0.33 97 1005.7
20260506200326 15 293 9.7 29.0 0.03 0.33 0.33 97 1005.7
20260506195816 16 248 17.7 33.8 0.03 0.33 0.33 97 1005.5
20260506195306 16 225 16.1 33.8 0.03 0.33 0.33 97 1005.5
20260506194756 15 225 12.9 33.8 0.03 0.33 0.33 97 1005.8
20260506194246 15 248 11.3 29.0 0.00 0.30 0.30 96 1006.1
20260506193239 15 203 17.7 32.2 0.00 0.30 0.30 96 1006.0
20260506192727 15 203 17.7 32.2 0.03 0.30 0.30 96 1006.0
20260506192214 15 225 17.7 32.2 0.03 0.30 0.30 96 1005.6
20260506191703 16 203 17.7 29.0 0.03 0.30 0.30 96 1005.8
20260506191150 16 248 20.9 29.0 0.03 0.30 0.30 95 1005.8
20260506190640 16 203 12.9 32.2 0.03 0.30 0.30 95 1005.9
20260506190127 16 248 19.3 32.2 0.05 0.30 0.30 95 1005.9
20260506185615 16 203 20.9 37.0 0.05 0.30 0.30 94 1005.8
20260506185105 16 180 17.7 37.0 0.05 0.30 0.30 94 1005.7
20260506184556 16 180 20.9 33.8 0.05 0.30 0.30 94 1006.0
20260506183535 16 248 19.3 29.0 0.10 0.30 0.30 93 1006.2
20260506180943 16 248 14.5 29.0 0.10 0.28 0.28 91 1007.7
20260506180449 16 203 16.1 27.4 0.13 0.28 0.28 90 1007.8
20260506175935 16 180 9.7 27.4 0.10 0.23 0.23 90 1008.3
20260506175425 16 203 12.9 35.4 0.13 0.23 0.23 90 1008.2
20260506174912 16 203 17.7 35.4 0.13 0.23 0.23 89 1008.0
20260506174402 16 203 16.1 32.2 0.15 0.23 0.23 89 1008.1
20260506173848 16 203 20.9 32.2 0.15 0.20 0.20 89 1008.5
20260506173335 15 225 14.5 29.0 0.15 0.20 0.20 91 1008.6
20260506172313 15 135 12.9 25.7 0.13 0.18 0.18 94 1009.0
20260506171803 15 158 11.3 27.4 0.13 0.18 0.18 95 1009.3
20260506171253 15 158 12.9 27.4 0.13 0.18 0.18 95 1009.2
20260506170743 15 203 17.7 33.8 0.13 0.18 0.18 95 1009.5